Location: Rathdrum
(47.8130°N, 116.8960°W)
Time: 01:47:43
(UTC-08:00)

Amateur Radio Satellites - All Passes

Search period start: 20 January 2017 01:17
Search period end: 21 January 2017 01:17
Location: Rathdrum, 47.8130°N, 116.8960°W

Satellite Date Start Highest point End Downlink Frequencies (MHz)
Time Altitude Azimuth
BEESAT 20 Jan 01:18:06 01:22:46 63° 72° (ENE) 01:27:30 436.000
MOZHAYETS 4 20 Jan 01:19:31 01:23:00 22° 62° (ENE) 01:26:29
SWISSCUBE 20 Jan 01:19:37 01:24:21 72° 72° (ENE) 01:29:08 437.505
AIST 2 20 Jan 01:26:05 01:27:41 12° 22° (NNE) 01:29:17 435.215
M-CUBED/EXP-1 PRIME 20 Jan 01:26:42 01:29:44 19° 58° (ENE) 01:32:37 437.505
Oscar 19 20 Jan 01:41:49 01:47:01 79° 287° (WNW) 01:52:10 437.125/150
CUSAT 1 20 Jan 01:48:41 01:52:42 21° 79° (E) 01:57:24 437.405
Gurwin Techsat 1B 20 Jan 01:51:45 01:57:06 72° 104° (ESE) 02:02:24 435.225
Cosmos 2491 20 Jan 01:52:48 02:01:27 74° 95° (E) 02:10:09 435.465 / 435.565
ISS 20 Jan 01:56:16 01:59:24 42° 7° (N) 02:02:31 145.825
AUBIESAT-1 20 Jan 02:02:56 02:06:42 33° 63° (ENE) 02:10:15 437.475
KKS-1 20 Jan 02:03:01 02:06:18 21° 62° (ENE) 02:09:35 437.445
BEESAT 3 20 Jan 02:05:27 02:07:17 13° 250° (WSW) 02:09:07 437.485
CUBESAT XI-V 20 Jan 02:05:54 02:07:42 12° 55° (NE) 02:09:30 437.345
RS-15 20 Jan 02:11:19 02:22:54 47° 332° (NNW) 02:34:46 29.354- 29.394
AIST 1 20 Jan 02:16:56 02:18:16 11° 278° (W) 02:19:36
ITUPSAT 1 20 Jan 02:21:16 02:25:39 36° 263° (W) 02:30:05 437.325
ITAMSAT 1 20 Jan 02:23:49 02:28:26 31° 95° (E) 02:33:02 435.822/435.867
Cosmos 2504 20 Jan 02:34:25 02:41:35 51° 270° (W) 02:48:26 435.465 / 435.565
DANDE 20 Jan 02:37:03 02:38:18 11° 75° (ENE) 02:39:37 436.750
PHONESAT 2.4 20 Jan 02:40:28 02:41:00 11° 167° (SSE) 02:41:33 2401.200-2431.200
PCSat 20 Jan 02:46:39 02:50:56 23° 324° (NW) 02:55:15 145.827
BEESAT 2 20 Jan 02:50:06 02:50:56 11° 251° (WSW) 02:51:47 435.950
AO-7 20 Jan 02:52:00 02:59:48 40° 98° (E) 03:07:29 29.400- 29.500
MOZHAYETS 4 20 Jan 02:55:23 02:59:50 50° 261° (W) 03:04:20
STARS 20 Jan 02:56:46 03:00:38 31° 66° (ENE) 03:04:29 437.465
BEESAT 20 Jan 02:57:50 03:00:59 17° 270° (W) 03:04:10 436.000
YUBILEINY 20 Jan 02:58:27 03:05:12 26° 282° (WNW) 03:11:55 435.215
M-CUBED/EXP-1 PRIME 20 Jan 02:59:38 03:03:55 54° 253° (WSW) 03:07:55 437.505
SWISSCUBE 20 Jan 02:59:54 03:02:41 15° 271° (W) 03:05:28 437.505
AIST 2 20 Jan 03:03:17 03:07:18 39° 44° (NE) 03:11:18 435.215
Oscar 19 20 Jan 03:22:54 03:25:31 14° 306° (NW) 03:28:07 437.125/150
CUSAT 1 20 Jan 03:28:21 03:33:38 70° 285° (WNW) 03:40:32 437.405
Gurwin Techsat 1B 20 Jan 03:32:43 03:36:30 20° 302° (WNW) 03:40:17 435.225
ISS 20 Jan 03:32:48 03:36:03 77° 207° (SSW) 03:39:18 145.825
AUBIESAT-1 20 Jan 03:37:27 03:41:06 27° 258° (WSW) 03:44:34 437.475
KKS-1 20 Jan 03:38:12 03:42:32 51° 260° (W) 03:46:53 437.445
CUBESAT XI-V 20 Jan 03:39:34 03:44:17 78° 74° (ENE) 03:49:01 437.345
BRITE-PL 20 Jan 03:44:44 03:48:04 18° 87° (E) 03:51:14 437.365/2234.400
Cosmos 2491 20 Jan 03:51:51 03:59:11 29° 298° (WNW) 04:06:36 435.465 / 435.565
GONETS M04 20 Jan 03:53:33 03:56:02 11° 43° (NE) 03:58:32
ITAMSAT 1 20 Jan 04:03:08 04:07:59 41° 294° (WNW) 04:12:50 435.822/435.867
PHONESAT 2.4 20 Jan 04:13:14 04:14:31 14° 183° (S) 04:15:48 2401.200-2431.200
DANDE 20 Jan 04:15:38 04:19:37 82° 283° (WNW) 04:25:04 436.750
RS-15 20 Jan 04:28:12 04:39:18 36° 5° (N) 04:50:20 29.354- 29.394
STARS 20 Jan 04:33:05 04:36:57 30° 264° (W) 04:40:50 437.465
PCSat 20 Jan 04:35:36 04:36:28 10° 350° (N) 04:37:21 145.827
HORYU 2 20 Jan 04:35:50 04:39:23 23° 93° (E) 04:42:56 437.375
AIST 2 20 Jan 04:41:58 04:45:42 30° 243° (WSW) 04:49:23 435.215
AO-7 20 Jan 04:44:43 04:52:49 56° 299° (WNW) 05:00:52 29.400- 29.500
Cosmos 2499 20 Jan 04:55:25 05:01:03 24° 61° (ENE) 05:06:32 435.465 / 435.565
O/OREOS (USA 219) 20 Jan 04:59:07 05:01:03 13° 98° (E) 05:02:59 437.305
ISS 20 Jan 05:10:11 05:12:05 15° 224° (SW) 05:14:00 145.825
CUTE-I 20 Jan 05:11:07 05:15:12 22° 92° (E) 05:19:15 437.470
CUSAT 1 20 Jan 05:13:48 05:17:16 15° 311° (NW) 05:21:08 437.405
STRAND 1 20 Jan 05:16:36 05:21:02 31° 64° (ENE) 05:25:30 437.568
CUBESAT XI-V 20 Jan 05:19:51 05:22:14 14° 273° (W) 05:24:38 437.345
BRITE-PL 20 Jan 05:22:07 05:27:05 61° 288° (WNW) 05:31:38 437.365/2234.400
GOMX 1 20 Jan 05:27:48 05:32:19 66° 102° (ESE) 05:36:32 467.674
LilacSat-2 20 Jan 05:31:51 05:35:21 32° 96° (E) 05:38:51 437.200
GONETS M04 20 Jan 05:47:24 05:55:49 45° 70° (ENE) 06:04:12
Cubesat XI-IV 20 Jan 05:53:32 05:58:41 48° 99° (E) 06:03:50 437.490
NOAA 18 20 Jan 05:55:37 06:00:18 28° 95° (E) 06:04:57 137.9125
DANDE 20 Jan 06:01:56 06:03:49 12° 311° (NW) 06:05:54 436.750
CINEMA 3 20 Jan 06:03:02 06:05:29 15° 90° (E) 06:07:56 145.822/145.860
NOAA 15 20 Jan 06:03:36 06:08:54 61° 102° (ESE) 06:14:08 137.62
DOVE 4 20 Jan 06:08:25 06:12:40 68° 102° (ESE) 06:16:46 437.250
HORYU 2 20 Jan 06:11:55 06:16:07 42° 291° (WNW) 06:20:19 437.375
PCSat 20 Jan 06:20:29 06:22:33 12° 17° (NNE) 06:24:36 145.827
CANX-2 20 Jan 06:20:58 06:23:39 16° 90° (E) 06:26:19 2200.000
SEEDS 20 Jan 06:33:20 06:35:10 12° 88° (E) 06:37:00 437.485
O/OREOS (USA 219) 20 Jan 06:35:19 06:39:48 79° 298° (WNW) 06:44:18 437.305
HO-68 20 Jan 06:38:07 06:44:14 29° 93° (E) 06:50:18 435.675
AO-7 20 Jan 06:38:55 06:43:51 17° 322° (NW) 06:48:47 29.400- 29.500
RS-15 20 Jan 06:42:55 06:55:08 57° 37° (NE) 07:07:00 29.354- 29.394
Cosmos 2499 20 Jan 06:47:50 06:55:02 75° 264° (W) 07:02:02 435.465 / 435.565
CUTE-I 20 Jan 06:50:23 06:55:38 60° 290° (WNW) 07:00:53 437.470
STRAND 1 20 Jan 06:55:20 07:00:06 40° 262° (W) 07:04:55 437.568
CUBEBUG 2 20 Jan 06:59:26 07:02:02 15° 90° (E) 07:04:39 437.445
BRITE-PL 20 Jan 07:04:14 07:04:25 10° 309° (NW) 07:04:36 437.365/2234.400
LilacSat-2 20 Jan 07:06:24 07:09:30 24° 294° (WNW) 07:12:37 437.200
GOMX 1 20 Jan 07:07:07 07:09:51 16° 301° (WNW) 07:12:29 467.674
SO-50 20 Jan 07:24:56 07:29:15 37° 119° (ESE) 07:33:31 436.795
PRISM 20 Jan 07:25:02 07:28:39 29° 66° (ENE) 07:32:17 437.425
FUNcube-1 20 Jan 07:26:10 07:27:03 11° 87° (E) 07:27:57 145.935
CUTE 1.7 + AOD 2 20 Jan 07:26:22 07:30:39 62° 101° (E) 07:34:54 437.475
UWE-3 20 Jan 07:27:55 07:31:06 20° 92° (E) 07:34:20 435.000/436.395/437.385
Cubesat XI-IV 20 Jan 07:34:02 07:38:33 29° 298° (WNW) 07:43:04 437.490
NOAA 18 20 Jan 07:35:57 07:41:10 47° 293° (WNW) 07:46:22 137.9125
CINEMA 3 20 Jan 07:38:53 07:42:59 57° 288° (WNW) 07:47:10 145.822/145.860
JAS-2 20 Jan 07:43:16 07:43:56 10° 44° (NE) 07:44:37 435.910
NOAA 15 20 Jan 07:44:08 07:48:16 23° 300° (WNW) 07:52:23 137.62
GONETS M04 20 Jan 07:44:25 07:52:44 48° 272° (W) 08:01:04
UNISAT 6 20 Jan 07:45:55 07:48:37 17° 61° (ENE) 07:51:20 437.425
ZACube-1 20 Jan 07:47:12 07:50:22 19° 92° (E) 07:53:34 437.345
DOVE 4 20 Jan 07:47:35 07:49:50 14° 301° (WNW) 07:52:03 437.250
CANX-2 20 Jan 07:55:38 07:59:53 58° 287° (WNW) 08:04:06 2200.000
TIGRISAT 20 Jan 07:58:49 08:01:57 20° 63° (ENE) 08:05:05 435.000
PCSat 20 Jan 08:02:54 08:07:45 31° 42° (NE) 08:12:34 145.827
SEEDS 20 Jan 08:07:06 08:11:22 73° 287° (WNW) 08:15:36 437.485
COMPASS 1 20 Jan 08:12:52 08:17:07 88° 102° (ESE) 08:21:19 437.405
ANTELSAT 20 Jan 08:13:21 08:17:01 29° 66° (ENE) 08:20:42 437.575/2403.000
O/OREOS (USA 219) 20 Jan 08:17:44 08:20:00 14° 317° (NW) 08:22:15 437.305
Oscar 11 20 Jan 08:23:26 08:27:29 36° 97° (E) 08:31:30 145.826/435.025
AAUSAT CUBESAT 2 20 Jan 08:24:22 08:28:35 90° 15° (NNE) 08:32:45 437.432
HO-68 20 Jan 08:25:21 08:32:27 64° 293° (WNW) 08:39:30 435.675
CUTE-I 20 Jan 08:33:07 08:34:38 11° 310° (NW) 08:36:10 437.470
CUBEBUG 2 20 Jan 08:34:46 08:39:01 61° 287° (WNW) 08:43:22 437.445
Cosmos 2499 20 Jan 08:43:33 08:46:45 14° 286° (WNW) 08:49:55 435.465 / 435.565
RS-15 20 Jan 08:55:59 09:08:00 61° 244° (WSW) 09:19:35 29.354- 29.394
FUNcube-1 20 Jan 08:59:31 09:03:54 90° 265° (W) 09:08:21 145.935
PRISM 20 Jan 09:00:14 09:03:54 29° 264° (W) 09:07:36 437.425
CUTE 1.7 + AOD 2 20 Jan 09:03:20 09:06:02 16° 299° (WNW) 09:08:43 437.475
UWE-3 20 Jan 09:03:37 09:07:48 48° 289° (WNW) 09:12:04 435.000/436.395/437.385
SO-50 20 Jan 09:05:19 09:09:43 39° 317° (NW) 09:14:05 436.795
QB50P1 20 Jan 09:15:43 09:18:11 15° 60° (ENE) 09:20:40 145.935-145.965
POLYITAN 1 20 Jan 09:19:35 09:22:16 17° 61° (ENE) 09:24:58 437.675
QB50P2 20 Jan 09:20:36 09:23:29 18° 62° (ENE) 09:26:21 145.880/145.840
UNISAT 6 20 Jan 09:20:42 09:24:55 59° 260° (W) 09:29:09 437.425
JAS-2 20 Jan 09:22:16 09:27:28 51° 67° (ENE) 09:33:15 435.910
ZACube-1 20 Jan 09:22:41 09:26:54 49° 289° (WNW) 09:31:11 437.345
TIGRISAT 20 Jan 09:34:16 09:38:21 46° 261° (W) 09:42:28 435.000
HUMSAT D 20 Jan 09:34:45 09:38:49 40° 98° (E) 09:42:53 437.325/437.525
POPSAT HIP 1 20 Jan 09:41:26 09:44:53 26° 65° (ENE) 09:48:22 437.405
DELFI C3 20 Jan 09:42:41 09:46:44 88° 104° (ESE) 09:50:42 145.870
PCSat 20 Jan 09:46:08 09:51:27 56° 243° (WSW) 09:56:45 145.827
ANTELSAT 20 Jan 09:49:54 09:53:41 31° 264° (W) 09:57:30 437.575/2403.000
COMPASS 1 20 Jan 09:50:23 09:51:59 12° 302° (WNW) 09:53:36 437.405
DUCHIFAT 1 20 Jan 09:52:14 09:55:49 28° 66° (ENE) 09:59:24 145.980
NANOSAT C BR1 20 Jan 09:57:28 10:01:15 34° 68° (ENE) 10:05:03 145.865
Oscar 11 20 Jan 09:59:50 10:03:30 26° 295° (WNW) 10:07:08 145.826/435.025
AAUSAT CUBESAT 2 20 Jan 10:01:57 10:03:23 12° 302° (WNW) 10:04:49 437.432
Cosmos 2491 20 Jan 10:05:09 10:07:25 11° 43° (NE) 10:09:41 435.465 / 435.565
HO-68 20 Jan 10:14:39 10:18:52 17° 314° (NW) 10:23:05 435.675
ESTCUBE 1 20 Jan 10:25:50 10:29:18 21° 92° (E) 10:32:45 437.505/2401.250
BUGSAT 1 20 Jan 10:27:28 10:30:48 25° 65° (ENE) 10:34:07 437.445
FUNcube-1 20 Jan 10:37:43 10:39:30 12° 302° (WNW) 10:41:17 145.935
VELOX 1 20 Jan 10:39:48 10:40:28 10° 87° (E) 10:41:07 145.980
SO-50 20 Jan 10:49:13 10:51:26 13° 340° (NNW) 10:53:40 436.795
QB50P1 20 Jan 10:49:20 10:53:29 64° 258° (WSW) 10:57:40 145.935-145.965
POLYITAN 1 20 Jan 10:53:32 10:57:39 58° 259° (W) 11:01:48 437.675
QB50P2 20 Jan 10:54:48 10:58:55 52° 260° (W) 11:03:02 145.880/145.840
BY70-1 20 Jan 11:01:06 11:04:29 82° 285° (WNW) 11:07:40 436.1900
SPROUT 20 Jan 11:07:18 11:09:50 15° 90° (E) 11:12:22 437.525
JAS-2 20 Jan 11:08:30 11:12:59 26° 269° (W) 11:17:51 435.910
HUMSAT D 20 Jan 11:10:49 11:14:13 23° 295° (WNW) 11:17:37 437.325/437.525
RS-15 20 Jan 11:11:42 11:17:37 15° 268° (W) 11:23:28 29.354- 29.394
DX 1 20 Jan 11:11:47 11:12:48 11° 87° (E) 11:13:50 434.975-435.025
POPSAT HIP 1 20 Jan 11:16:43 11:20:32 34° 263° (W) 11:24:24 437.405
DELFI C3 20 Jan 11:19:45 11:20:53 11° 302° (WNW) 11:22:00 145.870
Oscar 19 20 Jan 11:23:32 11:28:07 33° 64° (ENE) 11:32:44 437.125/150
CUBEBUG 1 20 Jan 11:23:33 11:27:44 45° 99° (E) 11:31:53 437.445
DUCHIFAT 1 20 Jan 11:27:45 11:31:26 30° 264° (W) 11:35:09 145.980
NANOSAT C BR1 20 Jan 11:33:35 11:37:03 25° 266° (W) 11:40:32 145.865
Gurwin Techsat 1B 20 Jan 11:37:48 11:42:07 26° 61° (ENE) 11:46:25 435.225
AISAT 20 Jan 11:39:51 11:44:05 44° 99° (E) 11:48:15 437.250
50 SAT 20 Jan 11:48:24 11:51:46 37° 98° (E) 11:55:04 437.505
Cosmos 2491 20 Jan 11:58:52 12:07:13 45° 70° (ENE) 12:15:33 435.465 / 435.565
ESTCUBE 1 20 Jan 12:01:59 12:06:21 47° 290° (WNW) 12:10:41 437.505/2401.250
BUGSAT 1 20 Jan 12:02:22 12:06:03 33° 263° (W) 12:09:43 437.445
AO-7 20 Jan 12:05:18 12:11:12 22° 43° (NE) 12:17:06 29.400- 29.500
ITAMSAT 1 20 Jan 12:09:40 12:11:35 12° 52° (NE) 12:13:30 435.822/435.867
YUBILEINY 20 Jan 12:12:45 12:18:24 19° 74° (ENE) 12:24:03 435.215
VELOX 1 20 Jan 12:13:09 12:17:35 89° 91° (E) 12:21:59 145.980
CUSAT 1 20 Jan 12:15:34 12:22:17 29° 61° (ENE) 12:28:49 437.405
TISAT 1 20 Jan 12:34:53 12:37:53 19° 92° (E) 12:40:53 437.305
SPROUT 20 Jan 12:41:57 12:46:09 59° 287° (WNW) 12:50:19 437.525
UKube-1 20 Jan 12:44:19 12:48:38 69° 102° (ESE) 12:52:55 .
DX 1 20 Jan 12:45:15 12:49:38 86° 283° (WNW) 12:53:57 434.975-435.025
CUBEBUG 1 20 Jan 13:00:28 13:03:45 21° 297° (WNW) 13:07:01 437.445
Oscar 19 20 Jan 13:02:30 13:07:21 39° 263° (W) 13:12:15 437.125/150
DANDE 20 Jan 13:05:10 13:11:18 26° 62° (ENE) 13:17:59 436.750
AO-85 20 Jan 13:08:28 13:12:28 28° 117° (ESE) 13:16:14 145.980
AIST 1 20 Jan 13:09:44 13:13:44 36° 92° (E) 13:17:45
Gurwin Techsat 1B 20 Jan 13:16:34 13:21:44 54° 259° (W) 13:26:58 435.225
BEESAT 20 Jan 13:16:39 13:18:33 12° 87° (E) 13:20:28 436.000
AISAT 20 Jan 13:16:51 13:20:18 23° 297° (WNW) 13:23:42 437.250
SWISSCUBE 20 Jan 13:17:46 13:20:19 14° 88° (E) 13:22:50 437.505
50 SAT 20 Jan 13:22:16 13:24:43 18° 296° (WNW) 13:27:09 437.505
Cosmos 2504 20 Jan 13:23:45 13:30:41 29° 82° (E) 13:37:17 435.465 / 435.565
ITAMSAT 1 20 Jan 13:44:59 13:50:06 67° 71° (ENE) 13:55:16 435.822/435.867
VELOX 1 20 Jan 13:51:28 13:53:22 13° 303° (WNW) 13:55:16 145.980
AO-7 20 Jan 13:54:20 14:02:38 72° 66° (ENE) 14:11:00 29.400- 29.500
Cosmos 2491 20 Jan 13:55:53 14:04:10 49° 272° (W) 14:12:27 435.465 / 435.565
CUSAT 1 20 Jan 13:57:02 14:05:03 79° 262° (W) 14:12:36 437.405
YUBILEINY 20 Jan 14:04:57 14:13:46 81° 96° (E) 14:22:39 435.215
TISAT 1 20 Jan 14:09:46 14:13:45 45° 290° (WNW) 14:17:44 437.305
SO-50 20 Jan 14:12:53 14:16:15 20° 30° (NNE) 14:19:34 436.795
ITUPSAT 1 20 Jan 14:17:42 14:22:19 44° 99° (E) 14:26:54 437.325
UKube-1 20 Jan 14:21:38 14:24:10 15° 301° (WNW) 14:26:40 .
DX 1 20 Jan 14:23:29 14:25:07 12° 304° (NW) 14:26:44 434.975-435.025
MOZHAYETS 4 20 Jan 14:46:55 14:51:01 29° 95° (E) 14:55:04
DANDE 20 Jan 14:47:09 14:54:48 87° 260° (W) 15:03:13 436.750
AIST 1 20 Jan 14:47:53 14:51:26 24° 290° (WNW) 14:55:00
AO-85 20 Jan 14:48:23 14:52:46 44° 314° (NW) 14:56:52 145.980
BEESAT 20 Jan 14:52:11 14:57:01 89° 290° (WNW) 15:01:49 436.000
SWISSCUBE 20 Jan 14:53:51 14:58:41 78° 287° (WNW) 15:03:28 437.505
BRITE-PL 20 Jan 14:57:12 15:02:16 34° 66° (ENE) 15:07:15 437.365/2234.400
GOMX 1 20 Jan 15:02:30 15:05:53 18° 60° (ENE) 15:09:11 467.674
O/OREOS (USA 219) 20 Jan 15:02:43 15:07:03 45° 58° (ENE) 15:11:24 437.305
Cosmos 2504 20 Jan 15:14:49 15:23:27 72° 282° (WNW) 15:31:33 435.465 / 435.565
KKS-1 20 Jan 15:25:59 15:29:32 23° 94° (E) 15:33:02 437.445
ITAMSAT 1 20 Jan 15:26:30 15:30:04 19° 270° (W) 15:33:38 435.822/435.867
CUBESAT XI-V 20 Jan 15:33:55 15:36:43 16° 88° (E) 15:39:31 437.345
HORYU 2 20 Jan 15:36:52 15:40:48 33° 66° (ENE) 15:44:44 437.375
CUSAT 1 20 Jan 15:40:35 15:45:46 19° 282° (WNW) 15:50:49 437.405
Cubesat XI-IV 20 Jan 15:41:16 15:44:52 19° 57° (ENE) 15:48:28 437.490
DOVE 4 20 Jan 15:41:26 15:44:10 15° 60° (ENE) 15:46:51 437.250
NOAA 18 20 Jan 15:48:02 15:50:49 14° 52° (NE) 15:53:37 137.9125
AO-7 20 Jan 15:49:00 15:56:05 30° 266° (W) 16:03:13 29.400- 29.500
NOAA 15 20 Jan 15:49:05 15:53:06 23° 59° (ENE) 15:57:10 137.62
SO-50 20 Jan 15:52:50 15:57:24 85° 53° (NE) 16:01:52 436.795
ITUPSAT 1 20 Jan 15:55:57 15:59:56 26° 297° (WNW) 16:03:55 437.325
BEESAT 3 20 Jan 15:56:29 16:00:10 42° 120° (ESE) 16:03:55 437.485
YUBILEINY 20 Jan 16:04:28 16:11:40 27° 300° (WNW) 16:18:57 435.215
M-CUBED/EXP-1 PRIME 20 Jan 16:09:46 16:13:08 56° 107° (ESE) 16:16:20 437.505
LilacSat-2 20 Jan 16:17:09 16:20:20 26° 67° (ENE) 16:23:32 437.200
STARS 20 Jan 16:18:21 16:22:23 36° 97° (E) 16:26:25 437.465
MOZHAYETS 4 20 Jan 16:23:59 16:28:12 35° 293° (WNW) 16:32:25
DANDE 20 Jan 16:31:10 16:36:45 22° 278° (W) 16:42:40 436.750
BEESAT 20 Jan 16:31:38 16:34:06 14° 304° (NW) 16:36:34 436.000
AO-85 20 Jan 16:32:22 16:34:11 12° 336° (NNW) 16:35:59 145.980
SWISSCUBE 20 Jan 16:33:40 16:35:40 13° 306° (NW) 16:37:41 437.505
BRITE-PL 20 Jan 16:35:11 16:40:35 43° 263° (W) 16:45:56 437.365/2234.400
CUTE-I 20 Jan 16:36:00 16:41:05 49° 68° (ENE) 16:46:11 437.470
GOMX 1 20 Jan 16:38:01 16:43:25 82° 257° (WSW) 16:48:34 467.674
BEESAT 2 20 Jan 16:41:29 16:45:20 54° 122° (ESE) 16:49:16 435.950
O/OREOS (USA 219) 20 Jan 16:42:41 16:46:11 22° 257° (WSW) 16:49:42 437.305
AUBIESAT-1 20 Jan 16:46:16 16:49:39 62° 292° (WNW) 16:52:54 437.475
KKS-1 20 Jan 17:02:05 17:06:15 41° 291° (WNW) 17:10:24 437.445
CINEMA 3 20 Jan 17:07:45 17:11:04 22° 64° (ENE) 17:14:20 145.822/145.860
CUBESAT XI-V 20 Jan 17:09:54 17:14:36 68° 287° (WNW) 17:19:14 437.345
HO-68 20 Jan 17:10:33 17:16:46 33° 57° (ENE) 17:23:00 435.675
Cosmos 2504 20 Jan 17:12:59 17:18:21 18° 304° (NW) 17:23:34 435.465 / 435.565
HORYU 2 20 Jan 17:13:30 17:17:21 29° 264° (W) 17:21:14 437.375
DOVE 4 20 Jan 17:16:21 17:21:20 82° 256° (WSW) 17:26:03 437.250
CANX-2 20 Jan 17:17:04 17:20:00 18° 62° (ENE) 17:22:58 2200.000
Cubesat XI-IV 20 Jan 17:19:01 17:24:20 78° 255° (WSW) 17:29:41 437.490
NOAA 18 20 Jan 17:25:06 17:30:35 74° 71° (ENE) 17:36:05 137.9125
NOAA 15 20 Jan 17:27:12 17:32:27 63° 258° (WSW) 17:37:45 137.62
SEEDS 20 Jan 17:28:17 17:30:38 15° 60° (ENE) 17:33:00 437.485
COMPASS 1 20 Jan 17:34:14 17:35:40 12° 58° (ENE) 17:37:06 437.405
BEESAT 3 20 Jan 17:34:32 17:37:55 27° 320° (NW) 17:41:21 437.485
SO-50 20 Jan 17:34:56 17:37:11 14° 251° (WSW) 17:39:27 436.795
Cosmos 2499 20 Jan 17:38:15 17:43:17 18° 77° (ENE) 17:48:08 435.465 / 435.565
AAUSAT CUBESAT 2 20 Jan 17:45:13 17:46:39 12° 58° (ENE) 17:48:07 437.432
M-CUBED/EXP-1 PRIME 20 Jan 17:45:42 17:47:11 12° 306° (NW) 17:48:38 437.505
LilacSat-2 20 Jan 17:51:19 17:54:34 27° 265° (W) 17:57:51 437.200
STARS 20 Jan 17:54:56 17:58:37 27° 295° (WNW) 18:02:16 437.465
CUBEBUG 2 20 Jan 18:01:02 18:03:57 19° 63° (ENE) 18:06:54 437.445
CUTE-I 20 Jan 18:16:56 18:21:22 26° 267° (W) 18:25:49 437.470
GOMX 1 20 Jan 18:19:59 18:22:09 12° 274° (W) 18:24:18 467.674
BEESAT 2 20 Jan 18:20:09 18:23:24 23° 322° (NW) 18:26:42 435.950
CUTE 1.7 + AOD 2 20 Jan 18:21:53 18:26:06 67° 74° (ENE) 18:30:22 437.475
FUNcube-1 20 Jan 18:24:47 18:26:39 13° 59° (ENE) 18:28:33 145.935
UWE-3 20 Jan 18:28:25 18:31:40 23° 65° (ENE) 18:34:57 435.000/436.395/437.385
AIST 2 20 Jan 18:42:29 18:45:48 24° 115° (ESE) 18:49:10 435.215
CINEMA 3 20 Jan 18:43:49 18:48:00 43° 262° (W) 18:52:05 145.822/145.860
ZACube-1 20 Jan 18:46:30 18:49:41 22° 64° (ENE) 18:52:55 437.345
CUBESAT XI-V 20 Jan 18:50:06 18:51:05 11° 306° (NW) 18:52:04 437.345
CANX-2 20 Jan 18:51:19 18:55:28 53° 260° (W) 18:59:42 2200.000
GONETS M04 20 Jan 18:52:59 19:01:02 45° 87° (E) 19:09:11
HO-68 20 Jan 18:56:59 19:04:06 62° 257° (WSW) 19:11:16 435.675
DOVE 4 20 Jan 18:58:28 18:59:39 11° 273° (W) 19:00:50 437.250
SEEDS 20 Jan 19:01:36 19:05:48 70° 258° (WSW) 19:10:04 437.485
STRAND 1 20 Jan 19:01:46 19:06:49 53° 100° (E) 19:11:51 437.568
Cubesat XI-IV 20 Jan 19:03:34 19:05:18 11° 275° (W) 19:07:01 437.490
COMPASS 1 20 Jan 19:06:19 19:10:32 89° 55° (NE) 19:14:46 437.405
NOAA 18 20 Jan 19:08:07 19:11:49 18° 270° (W) 19:15:33 137.9125
AAUSAT CUBESAT 2 20 Jan 19:17:16 19:21:27 90° 200° (SSW) 19:25:41 437.432
Oscar 11 20 Jan 19:21:13 19:25:17 42° 70° (ENE) 19:29:23 145.826/435.025
Cosmos 2499 20 Jan 19:26:56 19:35:19 82° 96° (E) 19:43:06 435.465 / 435.565
CUBEBUG 2 20 Jan 19:36:16 19:40:17 47° 261° (W) 19:44:19 437.445
AO-85 20 Jan 19:56:46 19:58:53 14° 27° (NNE) 20:00:57 145.980
FUNcube-1 20 Jan 19:58:11 20:02:18 78° 257° (WSW) 20:06:30 145.935
CUTE 1.7 + AOD 2 20 Jan 20:00:13 20:02:24 14° 272° (W) 20:04:37 437.475
UWE-3 20 Jan 20:04:06 20:07:57 37° 263° (W) 20:11:51 435.000/436.395/437.385
AIST 2 20 Jan 20:20:02 20:24:02 46° 314° (NW) 20:28:06 435.215
ZACube-1 20 Jan 20:21:52 20:25:46 40° 262° (W) 20:29:42 437.345
HUMSAT D 20 Jan 20:29:02 20:32:54 42° 70° (ENE) 20:36:51 437.325/437.525
DELFI C3 20 Jan 20:31:01 20:35:01 79° 77° (ENE) 20:39:05 145.870
PRISM 20 Jan 20:37:52 20:41:27 28° 96° (E) 20:44:59 437.425
STRAND 1 20 Jan 20:41:34 20:45:41 25° 299° (WNW) 20:49:47 437.568
GONETS M04 20 Jan 20:49:29 20:57:49 48° 289° (WNW) 21:06:16
HO-68 20 Jan 20:51:01 20:53:18 12° 278° (W) 20:55:36 435.675
Oscar 11 20 Jan 20:58:14 21:01:35 22° 268° (W) 21:04:59 145.826/435.025
UNISAT 6 20 Jan 21:09:01 21:12:29 22° 93° (E) 21:15:59 437.425
RS-15 20 Jan 21:16:10 21:23:13 18° 94° (E) 21:30:23 29.354- 29.394
BY70-1 20 Jan 21:18:41 21:21:29 32° 69° (ENE) 21:24:28 436.1900
TIGRISAT 20 Jan 21:22:00 21:25:47 27° 95° (E) 21:29:37 435.000
Cosmos 2499 20 Jan 21:22:51 21:29:19 25° 298° (WNW) 21:35:28 435.465 / 435.565
ESTCUBE 1 20 Jan 21:28:21 21:32:16 30° 65° (ENE) 21:36:13 437.505/2401.250
AO-85 20 Jan 21:36:10 21:40:07 62° 49° (NE) 21:43:58 145.980
ANTELSAT 20 Jan 21:37:06 21:41:17 40° 98° (E) 21:45:32 437.575/2403.000
VELOX 1 20 Jan 21:39:06 21:41:50 16° 59° (ENE) 21:44:34 145.980
ISS 20 Jan 21:51:12 21:54:00 26° 142° (SE) 21:56:48 145.825
AIST 2 20 Jan 22:01:37 22:03:32 13° 336° (NNW) 22:05:29 435.215
SPROUT 20 Jan 22:03:54 22:06:55 19° 62° (ENE) 22:09:56 437.525
HUMSAT D 20 Jan 22:05:40 22:08:43 20° 268° (W) 22:11:49 437.325/437.525
UKube-1 20 Jan 22:08:54 22:10:39 12° 57° (ENE) 22:12:25 .
DELFI C3 20 Jan 22:09:35 22:10:23 10° 273° (W) 22:11:10 145.870
DX 1 20 Jan 22:09:37 22:12:21 17° 60° (ENE) 22:15:06 434.975-435.025
JAS-2 20 Jan 22:10:50 22:17:30 40° 96° (E) 22:24:39 435.910
PRISM 20 Jan 22:13:06 22:16:44 30° 293° (WNW) 22:20:19 437.425
YUBILEINY 20 Jan 22:16:37 22:20:00 12° 45° (NE) 22:23:23 435.215
CUBEBUG 1 20 Jan 22:22:20 22:26:40 58° 72° (ENE) 22:31:00 437.445
50 SAT 20 Jan 22:26:18 22:29:21 27° 68° (ENE) 22:32:26 437.505
QB50P1 20 Jan 22:31:30 22:34:09 16° 91° (E) 22:36:46 145.935-145.965
BEESAT 3 20 Jan 22:33:15 22:35:48 16° 31° (NNE) 22:38:21 437.485
POLYITAN 1 20 Jan 22:35:37 22:38:31 18° 91° (E) 22:41:25 437.675
QB50P2 20 Jan 22:36:45 22:39:50 19° 92° (E) 22:42:55 145.880/145.840
AISAT 20 Jan 22:40:02 22:44:25 60° 72° (ENE) 22:48:48 437.250
UNISAT 6 20 Jan 22:45:11 22:49:23 44° 290° (WNW) 22:53:40 437.425
BY70-1 20 Jan 22:49:57 22:51:56 16° 269° (W) 22:54:01 436.1900
PCSat 20 Jan 22:52:39 22:53:37 10° 101° (E) 22:54:37 145.827
GONETS M04 20 Jan 22:54:22 22:57:27 12° 316° (NW) 23:00:33
POPSAT HIP 1 20 Jan 22:57:43 23:01:23 28° 95° (E) 23:05:03 437.405
TIGRISAT 20 Jan 22:58:31 23:02:32 35° 292° (WNW) 23:06:37 435.000
ESTCUBE 1 20 Jan 23:04:51 23:09:00 34° 264° (W) 23:13:10 437.505/2401.250
DUCHIFAT 1 20 Jan 23:07:48 23:11:33 31° 96° (E) 23:15:19 145.980
VELOX 1 20 Jan 23:13:21 23:17:47 69° 257° (WSW) 23:22:14 145.980
Cosmos 2504 20 Jan 23:13:26 23:15:28 11° 47° (NE) 23:17:29 435.465 / 435.565
NANOSAT C BR1 20 Jan 23:13:30 23:17:28 39° 98° (E) 23:21:25 145.865
AIST 1 20 Jan 23:14:03 23:16:21 14° 64° (ENE) 23:18:38
ANTELSAT 20 Jan 23:14:13 23:17:49 25° 295° (WNW) 23:21:29 437.575/2403.000
AO-85 20 Jan 23:17:45 23:20:01 15° 248° (WSW) 23:22:17 145.980
BEESAT 2 20 Jan 23:18:56 23:21:52 19° 34° (NNE) 23:24:47 435.950
RS-15 20 Jan 23:21:25 23:33:09 68° 118° (ESE) 23:45:20 29.354- 29.394
ISS 20 Jan 23:27:02 23:30:17 68° 340° (NNW) 23:33:32 145.825
TISAT 1 20 Jan 23:29:36 23:32:54 23° 64° (ENE) 23:36:12 437.305
SPROUT 20 Jan 23:38:22 23:42:31 50° 260° (W) 23:46:40 437.525
BUGSAT 1 20 Jan 23:40:25 23:43:48 25° 95° (E) 23:47:10 437.445
UKube-1 20 Jan 23:41:41 23:46:01 90° 118° (ESE) 23:50:23 .
DX 1 20 Jan 23:43:43 23:48:04 65° 258° (WSW) 23:52:27 434.975-435.025
ITUPSAT 1 20 Jan 23:53:31 23:55:17 12° 54° (NE) 23:57:03 437.325
JAS-2 20 Jan 23:55:51 00:02:37 51° 293° (WNW) 00:09:57 435.910
50 SAT 20 Jan 23:59:37 00:02:34 23° 265° (W) 00:05:31 437.505
CUBEBUG 1 21 Jan 00:00:30 00:03:19 17° 270° (W) 00:06:08 437.445
QB50P1 21 Jan 00:06:07 00:10:16 55° 288° (WNW) 00:14:23 145.935-145.965
BEESAT 3 21 Jan 00:10:02 00:14:04 79° 52° (NE) 00:18:04 437.485
POLYITAN 1 21 Jan 00:10:30 00:14:36 50° 289° (WNW) 00:18:42 437.675
YUBILEINY 21 Jan 00:11:02 00:19:34 49° 71° (ENE) 00:28:00 435.215
QB50P2 21 Jan 00:11:49 00:15:52 45° 290° (WNW) 00:19:54 145.880/145.840
AISAT 21 Jan 00:18:27 00:21:15 16° 270° (W) 00:24:04 437.250
BEESAT 21 Jan 00:25:30 00:29:09 22° 61° (ENE) 00:32:48 436.000
SWISSCUBE 21 Jan 00:26:56 00:30:47 25° 62° (ENE) 00:34:40 437.505
PCSat 21 Jan 00:30:37 00:35:59 67° 120° (ESE) 00:41:23 145.827
POPSAT HIP 1 21 Jan 00:33:26 00:37:09 31° 293° (WNW) 00:40:52 437.405
DUCHIFAT 1 21 Jan 00:43:35 00:47:11 28° 294° (WNW) 00:50:46 145.980
NANOSAT C BR1 21 Jan 00:49:38 00:52:59 23° 296° (WNW) 00:56:20 145.865
AIST 1 21 Jan 00:50:11 00:54:27 66° 263° (W) 00:58:39
BEESAT 2 21 Jan 00:56:05 01:00:09 82° 235° (SW) 01:04:12 435.950
ISS 21 Jan 01:03:58 01:07:04 40° 0° (N) 01:10:10 145.825
TISAT 1 21 Jan 01:04:26 01:08:20 39° 262° (W) 01:12:16 437.305
